• In Hungary
  • List of Countries
  • For 7 days
  • Water Temperature
  • Satellite Maps
  • Weather Map
  • News
  • Weather Widgets
  • user-avatar
    Login

    Hourly Weather Baza

    Today, 17 January, Wednesday

    Time Temperature Precipitation Wind Pressure Humidity
    00:00 +7°C° 0 mm 2 mps 692 mmHg 69%
    01:00 +6°C° 0 mm 2 mps 692 mmHg 69%
    02:00 +6°C° 0 mm 2 mps 692 mmHg 69%
    03:00 +6°C° 0 mm 2 mps 691 mmHg 69%
    04:00 +6°C° 0 mm 2 mps 691 mmHg 69%
    05:00 +7°C° 0 mm 1 mps 691 mmHg 69%
    06:00 +7°C° 0 mm 1 mps 691 mmHg 69%
    07:00 +8°C° 0 mm 1 mps 691 mmHg 64%
    08:00 +9°C° 0 mm 1 mps 692 mmHg 60%
    09:00 +11°C° 0 mm 1 mps 692 mmHg 55%
    10:00 +13°C° 0 mm 1 mps 693 mmHg 50%
    11:00 +14°C° 0 mm 1 mps 693 mmHg 45%
    12:00 +16°C° 0 mm 1 mps 693 mmHg 40%
    13:00 +16°C° 0 mm 1 mps 693 mmHg 40%
    14:00 +18°C° 0 mm 1 mps 693 mmHg 41%
    15:00 +18°C° 0 mm 1 mps 693 mmHg 41%
    16:00 +15°C° 0 mm 1 mps 692 mmHg 49%
    17:00 +12°C° 0 mm 1 mps 692 mmHg 56%
    18:00 +10°C° 0 mm 1 mps 691 mmHg 64%
    19:00 +9°C° 0 mm 1 mps 692 mmHg 66%
    20:00 +9°C° 0 mm 1 mps 692 mmHg 67%
    21:00 +9°C° 0 mm 1 mps 692 mmHg 69%
    22:00 +8°C° 0 mm 1 mps 692 mmHg 69%
    23:00 +8°C° 0 mm 1 mps 692 mmHg 69%

    Tomorrow, 18 January, Thursday

    Time Temperature Precipitation Wind Pressure Humidity
    00:00 +7°C° 0 mm 2 mps 692 mmHg 70%
    01:00 +7°C° 0 mm 2 mps 692 mmHg 70%
    02:00 +6°C° 0 mm 2 mps 692 mmHg 70%
    03:00 +6°C° 0 mm 2 mps 691 mmHg 70%
    04:00 +6°C° 0 mm 2 mps 691 mmHg 73%
    05:00 +5°C° 0 mm 2 mps 691 mmHg 76%
    06:00 +5°C° 0 mm 2 mps 691 mmHg 79%
    07:00 +6°C° 0 mm 2 mps 691 mmHg 78%
    08:00 +7°C° 0 mm 2 mps 692 mmHg 76%
    09:00 +8°C° 0 mm 2 mps 692 mmHg 75%
    10:00 +9°C° 0 mm 2 mps 692 mmHg 68%
    11:00 +12°C° 0 mm 2 mps 692 mmHg 62%
    12:00 +13°C° 0 mm 2 mps 692 mmHg 55%
    13:00 +14°C° 0 mm 2 mps 692 mmHg 53%
    14:00 +14°C° 0 mm 2 mps 691 mmHg 50%
    15:00 +15°C° 0 mm 2 mps 691 mmHg 48%
    16:00 +13°C° 0 mm 1 mps 690 mmHg 55%
    17:00 +11°C° 0 mm 1 mps 690 mmHg 63%
    18:00 +10°C° 0 mm 1 mps 690 mmHg 70%
    19:00 +9°C° 0 mm 1 mps 690 mmHg 71%
    20:00 +9°C° 0 mm 1 mps 690 mmHg 72%
    21:00 +9°C° 0 mm 1 mps 690 mmHg 73%
    22:00 +9°C° 0 mm 1 mps 689 mmHg 73%
    23:00 +9°C° 0 mm 1 mps 689 mmHg 74%

    Day after tomorrow, 19 January, Friday

    Time Temperature Precipitation Wind Pressure Humidity
    00:00 +8°C° 0 mm 1 mps 689 mmHg 75%
    01:00 +8°C° 0 mm 1 mps 689 mmHg 75%
    02:00 +8°C° 0 mm 1 mps 688 mmHg 75%
    03:00 +8°C° 0 mm 1 mps 688 mmHg 76%
    04:00 +8°C° 0 mm 1 mps 688 mmHg 77%
    05:00 +7°C° 0 mm 1 mps 688 mmHg 78%
    06:00 +7°C° 0 mm 1 mps 687 mmHg 78%
    07:00 +8°C° 0 mm 1 mps 688 mmHg 74%
    08:00 +9°C° 0 mm 1 mps 689 mmHg 69%
    09:00 +10°C° 0 mm 1 mps 689 mmHg 65%
    10:00 +11°C° 0 mm 1 mps 690 mmHg 59%
    11:00 +12°C° 0 mm 1 mps 690 mmHg 53%
    12:00 +14°C° 0 mm 2 mps 690 mmHg 47%
    13:00 +14°C° 0 mm 2 mps 690 mmHg 45%
    14:00 +14°C° 0 mm 2 mps 690 mmHg 44%
    15:00 +14°C° 0 mm 2 mps 689 mmHg 42%
    16:00 +13°C° 0 mm 2 mps 689 mmHg 49%
    17:00 +10°C° 0 mm 2 mps 689 mmHg 57%
    18:00 +9°C° 0 mm 1 mps 689 mmHg 64%
    19:00 +9°C° 0 mm 1 mps 690 mmHg 65%
    20:00 +7°C° 0 mm 2 mps 690 mmHg 65%
    21:00 +7°C° 0 mm 2 mps 691 mmHg 66%
    22:00 +6°C° 0 mm 2 mps 691 mmHg 66%
    23:00 +6°C° 0 mm 2 mps 691 mmHg 67%

    20 January, Saturday

    Time Temperature Precipitation Wind Pressure Humidity
    00:00 +6°C° 0 mm 2 mps 691 mmHg 68%
    01:00 +5°C° 0 mm 2 mps 691 mmHg 68%
    02:00 +5°C° 0 mm 2 mps 691 mmHg 68%
    03:00 +5°C° 0 mm 2 mps 691 mmHg 67%
    04:00 +5°C° 0 mm 2 mps 691 mmHg 68%
    05:00 +5°C° 0 mm 2 mps 691 mmHg 68%
    06:00 +4°C° 0 mm 2 mps 691 mmHg 68%
    07:00 +6°C° 0 mm 2 mps 692 mmHg 62%
    08:00 +7°C° 0 mm 2 mps 693 mmHg 57%
    09:00 +8°C° 0 mm 2 mps 694 mmHg 52%
    10:00 +10°C° 0 mm 2 mps 694 mmHg 46%
    11:00 +12°C° 0 mm 2 mps 694 mmHg 41%
    12:00 +14°C° 0 mm 2 mps 694 mmHg 35%
    13:00 +14°C° 0 mm 2 mps 694 mmHg 35%
    14:00 +14°C° 0 mm 2 mps 694 mmHg 36%
    15:00 +13°C° 0 mm 3 mps 693 mmHg 36%
    16:00 +12°C° 0 mm 3 mps 693 mmHg 42%
    17:00 +10°C° 0 mm 2 mps 693 mmHg 49%
    18:00 +8°C° 0 mm 2 mps 693 mmHg 55%
    19:00 +8°C° 0 mm 2 mps 693 mmHg 56%
    20:00 +8°C° 0 mm 2 mps 694 mmHg 57%
    21:00 +7°C° 0 mm 2 mps 694 mmHg 58%
    22:00 +7°C° 0 mm 2 mps 694 mmHg 59%
    23:00 +7°C° 0 mm 2 mps 694 mmHg 60%

    21 January, Sunday

    Time Temperature Precipitation Wind Pressure Humidity
    00:00 +7°C° 0 mm 2 mps 694 mmHg 61%
    01:00 +7°C° 0 mm 2 mps 694 mmHg 62%
    02:00 +7°C° 0 mm 2 mps 694 mmHg 62%
    03:00 +6°C° 0 mm 2 mps 693 mmHg 63%
    04:00 +6°C° 0 mm 2 mps 694 mmHg 64%
    05:00 +6°C° 0 mm 2 mps 694 mmHg 66%
    06:00 +6°C° 0 mm 2 mps 694 mmHg 67%
    07:00 +8°C° 0 mm 2 mps 694 mmHg 63%
    08:00 +9°C° 0 mm 2 mps 695 mmHg 60%
    09:00 +10°C° 0 mm 2 mps 696 mmHg 56%
    10:00 +13°C° 0 mm 2 mps 696 mmHg 53%
    11:00 +15°C° 0 mm 2 mps 696 mmHg 49%
    12:00 +16°C° 0 mm 2 mps 696 mmHg 45%
    13:00 +16°C° 0 mm 2 mps 696 mmHg 44%
    14:00 +17°C° 0 mm 2 mps 696 mmHg 43%
    15:00 +17°C° 0 mm 2 mps 696 mmHg 43%
    16:00 +15°C° 0 mm 2 mps 695 mmHg 50%
    17:00 +13°C° 0 mm 1 mps 695 mmHg 57%
    18:00 +11°C° 0 mm 1 mps 695 mmHg 65%
    19:00 +11°C° 0 mm 1 mps 695 mmHg 65%
    20:00 +10°C° 0 mm 1 mps 695 mmHg 66%
    21:00 +10°C° 0 mm 1 mps 696 mmHg 66%
    22:00 +10°C° 0 mm 1 mps 695 mmHg 67%
    23:00 +9°C° 0 mm 1 mps 695 mmHg 67%

    22 January, Monday

    Time Temperature Precipitation Wind Pressure Humidity
    00:00 +9°C° 0 mm 1 mps 695 mmHg 67%
    01:00 +8°C° 0 mm 1 mps 695 mmHg 69%
    02:00 +8°C° 0 mm 1 mps 695 mmHg 70%
    03:00 +7°C° 0 mm 0 mps 694 mmHg 71%
    04:00 +6°C° 0 mm 0 mps 694 mmHg 71%
    05:00 +6°C° 0 mm 0 mps 694 mmHg 70%
    06:00 +6°C° 0 mm 0 mps 694 mmHg 70%
    07:00 +8°C° 0 mm 0 mps 695 mmHg 63%
    08:00 +10°C° 0 mm 0 mps 695 mmHg 56%
    09:00 +12°C° 0 mm 0 mps 696 mmHg 49%
    10:00 +14°C° 0 mm 1 mps 696 mmHg 43%
    11:00 +16°C° 0 mm 1 mps 696 mmHg 37%
    12:00 +19°C° 0 mm 1 mps 697 mmHg 31%
    13:00 +19°C° 0 mm 1 mps 696 mmHg 30%
    14:00 +19°C° 0 mm 1 mps 696 mmHg 30%
    15:00 +19°C° 0 mm 2 mps 695 mmHg 29%
    16:00 +16°C° 0 mm 1 mps 695 mmHg 37%
    17:00 +14°C° 0 mm 1 mps 695 mmHg 44%
    18:00 +12°C° 0 mm 1 mps 694 mmHg 52%
    19:00 +11°C° 0 mm 1 mps 694 mmHg 53%
    20:00 +10°C° 0 mm 1 mps 694 mmHg 55%
    21:00 +10°C° 0 mm 1 mps 694 mmHg 56%
    22:00 +10°C° 0 mm 1 mps 694 mmHg 57%
    23:00 +9°C° 0 mm 1 mps 694 mmHg 57%
    Show more